Regional Weather Roundup
Issued by NWS

Home | Current Version | Previous Version | Graphics & Text | Print | Product List | Glossary On
Versions: 1 2 3 4 5 6 7 8 9 10 11 12 13 14 15 16 17 18 19 20 21 22 23 24 25 26 27 28 29 30 31 32 33 34 35 36 37 38 39 40 41 42 43 44 45 46 47 48 49 50
000
ASUS43 KMPX 211210
RWRMN
WEATHER ROUNDUP FOR MINNESOTA
NATIONAL WEATHER SERVICE TWIN CITIES/CHANHASSEN MN
700 AM CDT SAT APR 21 2018


NOTE: "FAIR" INDICATES FEW OR NO CLOUDS BELOW 12,000 FEET WITH NO
SIGNIFICANT WEATHER AND/OR OBSTRUCTIONS TO VISIBILITY. N/A MEANS
CURRENT SKY AND/OR WEATHER CONDITIONS ARE NOT AVAILABLE.

MNZ060>063-068>070-211300-
   Twin Cities Metro

CITY           SKY/WX    TMP DP  RH WIND       PRES   REMARKS
TWIN CITIES    MOCLDY    38  28  67 CALM      30.44R
6HR MIN TEMP:  36; 6HR MAX TEMP:  42;

ST PAUL        FAIR      35  29  78 CALM      30.45R
CRYSTAL        FAIR      32  26  78 CALM      30.43R
BLAINE         MOCLDY    34  27  75 CALM      30.43R
LAKEVILLE      FAIR      30  30 100 CALM      30.43S
EDEN PRAIRIE   FAIR      35  27  72 CALM      30.43R
6HR MIN TEMP:  34; 6HR MAX TEMP:  38;

SOUTH ST PAUL  FAIR      35  28  76 CALM      30.44R
LAKE ELMO      FAIR      32  30  93 CALM      30.44R
$$
MNZ001>005-007-008-013>017-022>024-027-028-211300-
   Northwest Minnesota

CITY           SKY/WX    TMP DP  RH WIND       PRES   REMARKS
BEMIDJI        FAIR      25  22  89 CALM      30.38S
HALLOCK        CLOUDY    36  34  93 S13       30.33S FOG
ROSEAU         FAIR      34  28  80 S6        30.35S WCI  29
WARROAD        FAIR      34  28  80 S3        30.36S
THIEF RVR FALL FAIR      32  30  92 SE6       30.37R WCI  26
CROOKSTON      FAIR      34  32  93 S8        30.38R WCI  27
FOSSTON        FAIR      34  28  80 S6        30.38R WCI  29
DETROIT LAKES  FAIR      32  30  93 CALM      30.39R
MOORHEAD       FAIR      32  28  86 SE7       30.39R WCI  26
PARK RAPIDS    FAIR      30  24  78 CALM      30.38S
MAHNOMEN       FAIR      31  28  86 SE6       30.38R WCI  26
$$
MNZ006-009>011-018-025>026-211300-
   North Central Minnesota

CITY           SKY/WX    TMP DP  RH WIND       PRES   REMARKS
BAUDETTE       FAIR      30  29  96 CALM      30.37R
FLAG ISLAND    FAIR      34  28  80 SE5       30.35S WCI  30
INTL FALLS     FAIR      27  25  92 CALM      30.38R
6HR MIN TEMP:  25; 6HR MAX TEMP:  32;

WASKISH        FAIR      27  25  93 CALM      30.39R
BIG FORK       FAIR      27  21  80 CALM      30.39R
LONGVILLE      FAIR      23  21  93 CALM      30.41R
GRAND RAPIDS   FAIR      27  22  81 S5        30.42R WCI  22
CRANE LAKE     FAIR      21  19  93 CALM      30.41R
ORR            FAIR      30  19  64 CALM      30.37R
COOK           FAIR      27  21  80 CALM      30.39S
WALKER         FAIR      28  22  81 CALM      30.39S
$$
MNZ012-019>021-037-211300-
   Northeast Minnesota

CITY           SKY/WX    TMP DP  RH WIND       PRES   REMARKS
DULUTH         FAIR      30  22  72 NW3       30.40R
6HR MIN TEMP:  28; 6HR MAX TEMP:  40;

ELY            FAIR      25  21  86 CALM      30.39S
HIBBING        FAIR      24  21  88 CALM      30.39R
EVELETH        FAIR      24  22  90 CALM      30.40S
DULUTH HARBOR  FAIR      34  23  64 SW5       30.43R WCI  30
TWO HARBORS    FAIR      41  25  52 CALM      30.38R
SILVER BAY     FAIR      28  25  86 CALM      30.38R
GRAND MARAIS     N/A     33  24  69 NE3       30.40S
G MARAIS ARPRT FAIR      30  18  59 CALM      30.38R
$$
MNZ029>031-032-039>041-046>048-054>057-064-211300-
   West Central Minnesota

CITY           SKY/WX    TMP DP  RH WIND       PRES   REMARKS
FERGUS FALLS   FAIR      34  28  80 SE7       30.38R WCI  28
WHEATON        PTCLDY    32  30  93 SE7       30.40S FOG     WCI  26
MORRIS         PTCLDY    34  30  86 SE6       30.39R WCI  29
ALEXANDRIA     FAIR      34  27  75 SE3       30.40R
ELBOW LAKE     FAIR      33  29  85 SE7       30.40R WCI  27
WADENA         FAIR      27  27 100 CALM      30.40R FOG
GLENWOOD       FAIR      32  30  93 SE3       30.41R
APPLETON       CLOUDY    36  30  80 SE5       30.40S
BENSON         PTCLDY    34  28  80 S5        30.43R WCI  30
ORTONVILLE     CLOUDY    34  30  86 SE7       30.39R WCI  28
MADISON        MOCLDY    36  34  93 E5        30.39S FOG
WILLMAR        FAIR      34  30  86 SE3       30.44R
$$
MNZ033>034-036-042>043-049>051-058-059-211300-
   Central Minnesota

CITY           SKY/WX    TMP DP  RH WIND       PRES   REMARKS
ST CLOUD       FAIR      28  25  88 CALM      30.43R
6HR MIN TEMP:  27; 6HR MAX TEMP:  31;

SAUK CENTRE    FAIR      28  28  97 CALM      30.42R FOG
PAYNESVILLE    FAIR      30  30  99 CALM      30.43R
AITKIN         FAIR      23  21  93 CALM      30.41S
PINE RIVER     FAIR      23  19  86 CALM      30.44R
BRAINERD       FAIR      27  22  81 CALM      30.42R
STAPLES        FAIR      25  25 100 CALM      30.40S
LONG PRAIRIE   FAIR      28  28 100 CALM      30.41R FOG
LITTLE FALLS   FAIR      28  25  86 CALM      30.43R
LITCHFIELD     FAIR      34  30  86 CALM      30.43R
BUFFALO        FAIR      32  28  87 CALM      30.45R
MAPLE LAKE     FAIR      31  29  94 CALM      30.44R FOG
HUTCHINSON     FAIR      33  31  93 CALM      30.44S
$$
MNZ037-044-045-052-053-211300-
   East Central Minnesota

CITY           SKY/WX    TMP DP  RH WIND       PRES   REMARKS
PRINCETON      FAIR      28  25  86 CALM      30.44R
MORA           FAIR      27  23  86 CALM      30.44R
CAMBRIDGE      FAIR      30  21  69 CALM      30.44R
RUSH CITY      FAIR      28  24  86 CALM      30.44R
MOOSE LAKE     FAIR      25  21  86 CALM      30.41R
HINCKLEY       FAIR      27  25  93 CALM      30.43R
CLOQUET        FAIR      28  19  69 CALM      30.41R
MCGREGOR       FAIR      28  23  80 S3        30.43R
$$
MNZ071>073-080-081-089-090-097-098-211300-
   Southwest Minnesota

CITY           SKY/WX    TMP DP  RH WIND       PRES   REMARKS
MONTEVIDEO     MOCLDY    32  30  93 CALM      30.41S
GRANITE FALLS  CLOUDY    35  31  87 NE5       30.42S WCI  31
CANBY          CLOUDY    35  32  92 CALM      30.39S
MARSHALL       CLOUDY    37  29  72 NE6       30.39S
REDWOOD FALLS  CLOUDY    34  29  82 NE5       30.40S WCI  30
OLIVIA         CLOUDY    36  30  80 CALM      30.41S
PIPESTONE      CLOUDY   N/A N/A N/A SE6       30.34S
WINDOM         CLOUDY    36  19  51 CALM      30.37F
WORTHINGTON    CLOUDY    38  27  64 SE6       30.37S
JACKSON        CLOUDY    37  28  70 SE6       30.38R
TRACY          CLOUDY    39  31  73 SW5       30.37S
SLAYTON        CLOUDY    35  31  87 SE5       30.36F WCI  31
$$
MNZ065>067-074>077-082>085-091>093-211300-
   South Central Minnesota

CITY           SKY/WX    TMP DP  RH WIND       PRES   REMARKS
MANKATO        CLOUDY    36  29  75 NE3       30.41F
NEW ULM        CLOUDY    36  28  75 NE3       30.41S
ST JAMES       CLOUDY    34  30  86 CALM      30.40F
FAIRMONT       CLOUDY    35  29  78 CALM      30.39F
GLENCOE        FAIR      34  31  90 CALM      30.43R
OWATONNA       FAIR      36  30  80 E3        30.42R
WASECA         CLOUDY    36  30  80 E6        30.42S
ALBERT LEA     CLOUDY    36  27  69 E3        30.40F
$$
MNZ078>079-086>088-094>096-211300-
   Southeast Minnesota

CITY           SKY/WX    TMP DP  RH WIND       PRES   REMARKS
ROCHESTER      CLOUDY    37  27  67 S5        30.42R
6HR MIN TEMP:  35; 6HR MAX TEMP:  39; 6HR PCP: TRACE;

RED WING       FAIR      34  27  75 CALM      30.43R
STANTON        FAIR      33  31  92 CALM      30.42R
DODGE CENTER   FAIR      36  27  69 CALM      30.42R
WINONA         FAIR      36  32  87 CALM      30.42R
AUSTIN         CLOUDY    36  27  69 NE3       30.40F
PRESTON        CLOUDY    37  27  67 CALM      30.43R
$$
ABBREVIATIONS USED IN REMARKS
   TC - TEMPERATURES IN CELSIUS
  WCI - WIND CHILL INDEX
   HX - HEAT INDEX
  VSB - VISIBILITY
$$



USA.gov is the U.S. government's official web portal to all federal, state and local government web resources and services.